Flag for United Kingdom Weather past 2 weeks in Carlisle, England, United Kingdom

Now
60 °F

Cool.


Feels Like: N/A
Forecast: 57 / 67 °F
Wind: N/A

Location: Carlisle

Current Time: Jul 30, 2014 at 12:19:22 AM

Latest Report: Jul 29, 2014 at 11:00 PM


Visibility: 38 mi

Pressure: 29.99 "Hg

Humidity: 73%

Dew point: 51 °F

Location of CarlisleLocation

Historic Weather in Carlisle — Graph

°F

Carlisle temperature yesterday

Maximum temperature yesterday: 68 °F (at 3:00 PM)
Minimum temperature yesterday: 58 °F (at 3:00 AM)
Average temperature yesterday: 62 °F

Past Weeks' High & Low Weather Summary

 TemperatureHumidityPressure
High82 °F (Jul 25, 4:00 PM)100% (Jul 20, 1:00 AM)30.29 "Hg (Jul 20, 1:00 AM)
Low50 °F (Jul 16, 3:00 AM)35% (Jul 25, 3:00 PM)29.72 "Hg (Jul 19, 7:00 PM)
Average64 °F77%30.04 "Hg
* Reported Jul 14 11:00 PM — Jul 29 11:00 PM, Carlisle, Weather by CustomWeather, © 2014

Note: Actual official high and low records may vary slightly from our data, if they occured in-between our weather recording intervals... More about our weather records

Advertising

Carlisle weather history for previous 24 hours

 ConditionsComfort  
Time TempWeatherWind HumidityBarometerVisibility
11:00 PM
Jul 29
60 °FCool.N/A73%29.99 "Hg37 mi
10:00 PM60 °FCool.N/A73%29.99 "Hg31 mi
9:00 PM61 °FCool.N/A70%29.98 "Hg28 mi
8:00 PM62 °FCool.N/A68%29.98 "Hg25 mi
7:00 PM63 °FMild.N/A64%29.98 "Hg19 mi
6:00 PM68 °FMild.N/A54%29.98 "Hg25 mi
5:00 PM66 °FMild.N/A61%29.98 "Hg31 mi
4:00 PM68 °FMild.N/A57%29.98 "Hg31 mi
3:00 PM68 °FMild.N/A58%29.98 "Hg19 mi
2:00 PM66 °FMild.N/A64%29.99 "Hg25 mi
1:00 PM63 °FMild.N/A82%30.00 "Hg28 mi
12:00 PM65 °FMild.N/A82%29.99 "Hg22 mi
11:00 AM62 °FMild.N/A91%30.00 "Hg22 mi
10:00 AM60 °FCool.N/A99%30.01 "Hg6 mi
9:00 AM59 °FCool.N/A96%30.01 "Hg1 mi
7:00 AM59 °FCool.N/A89%30.02 "Hg19 mi
6:00 AM59 °FCool.N/A90%30.02 "Hg17 mi
5:00 AM58 °FCool.N/A90%30.02 "Hg19 mi
4:00 AM59 °FCool.N/A90%30.03 "Hg22 mi
3:00 AM58 °FCool.N/A94%30.04 "Hg17 mi
2:00 AM58 °FCool.N/A91%30.06 "Hg22 mi
1:00 AM59 °FCool.N/A86%30.06 "Hg25 mi
12:00 AM60 °FCool.N/A84%30.06 "Hg28 mi
Weather by CustomWeather, © 2014

See weather overviewHow to use our weather pages